Inquirer Daily News

Weather

Get conditions and forecasts for any City, State, ZIP code or Country:  
Trenton, NJ
on Monday, November 12, 2012

Monday
Previous Day Next Day
Daily Summary
 ActualAverageRecord
Temperature
Mean Temperature °F 47°F  
Max Temperature 70°F 56°F 74°F (1912)
Min Temperature 43°F 38°F 24°F (2001)
Degree Days
Heating Degree Days 8 18  
Month to date heating degree days 255 198  
Since 1 July heating degree days 562 595  
Cooling Degree Days 0 0  
Month to date cooling degree days 0 0  
Year to date cooling degree days 1234 965  
Growing Degree Days6 (Base °F )  
Moisture
Dew Point 49°F   
Average Humidity 79    
Maximum Humidity 100    
Minimum Humidity 57    
Precipitation
Precipitation 0.00 in 0.09 in 1.80 in (1975)
Month to date precipitation 0.36 1.27  
Year to date precipitation 32.41 40.70  
Wind
Wind Speed 5 mph   
Max Wind Speed 16 mph   
Max Gust Speed 22 mph   
Visibility 5 miles   
Events Fog   

Key: T is trace of precipitation, MM is missing value
Source: NWS Daily Summary
Time(EST)TemperatureDew PointHumidity Pressure Visibility Wind DirectionWind SpeedGust SpeedPrecipitationEvents Conditions
12:53 AM 46.0°F 44.1°F 93% 30.44 in 6.0 miles Calm Calm - N/A   Clear
1:45 AM 44.6°F 42.8°F 93% 30.46 in 2.0 miles Calm Calm - N/A   Clear
1:53 AM 45.0°F 43.0°F 93% 30.45 in 1.5 miles Calm Calm - N/A   Clear
2:05 AM 44.6°F 42.8°F 93% 30.46 in 0.5 miles Calm Calm - N/A Fog Fog
2:33 AM 44.6°F 42.8°F 93% 30.45 in 1.5 miles SSE 3.5 mph - N/A   Clear
2:51 AM 44.6°F 44.6°F 100% 30.45 in 0.5 miles Calm Calm - N/A Fog Fog
2:53 AM 44.1°F 43.0°F 96% 30.44 in 0.5 miles Calm Calm - N/A Fog Fog
3:05 AM 44.6°F 44.6°F 100% 30.45 in 0.2 miles Calm Calm - N/A Fog Fog
3:15 AM 44.6°F 42.8°F 93% 30.44 in 0.2 miles Calm Calm - N/A Fog Fog
3:53 AM 43.0°F 42.1°F 97% 30.43 in 0.2 miles Calm Calm - N/A Fog Fog
4:53 AM 44.1°F 43.0°F 96% 30.42 in 0.2 miles Calm Calm - N/A Fog Fog
5:53 AM 43.0°F 42.1°F 97% 30.43 in 0.2 miles Calm Calm - N/A Fog Fog
6:53 AM 44.1°F 43.0°F 96% 30.42 in 0.2 miles Calm Calm - N/A Fog Fog
7:53 AM 45.0°F 44.1°F 97% 30.43 in 0.2 miles Calm Calm - 0.01 in Fog Fog
8:53 AM 48.0°F 48.0°F 100% 30.43 in 0.2 miles Calm Calm - N/A Fog Fog
9:45 AM 51.8°F 51.8°F 100% 30.43 in 2.0 miles SSW 3.5 mph - N/A   Overcast
9:53 AM 52.0°F 51.1°F 97% 30.41 in 4.0 miles SW 3.5 mph - N/A   Mostly Cloudy
10:03 AM 53.6°F 51.8°F 94% 30.42 in 4.0 miles Calm Calm - N/A   Scattered Clouds
10:53 AM 59.0°F 53.1°F 81% 30.39 in 7.0 miles Calm Calm - N/A   Clear
11:53 AM 64.9°F 55.0°F 70% 30.36 in 10.0 miles SSW 9.2 mph - N/A   Clear
12:53 PM 68.0°F 55.0°F 63% 30.32 in 10.0 miles SSW 11.5 mph 17.3 mph N/A   Scattered Clouds
1:53 PM 68.0°F 54.0°F 61% 30.30 in 10.0 miles South 11.5 mph - N/A   Mostly Cloudy
2:53 PM 69.1°F 54.0°F 58% 30.27 in 10.0 miles South 12.7 mph - N/A   Mostly Cloudy
3:53 PM 66.9°F 54.0°F 63% 30.25 in 10.0 miles South 8.1 mph - N/A   Partly Cloudy
4:53 PM 64.9°F 54.0°F 68% 30.24 in 10.0 miles South 9.2 mph - N/A   Clear
5:53 PM 63.0°F 54.0°F 72% 30.24 in 10.0 miles South 9.2 mph 19.6 mph N/A   Clear
6:53 PM 62.1°F 54.0°F 75% 30.23 in 10.0 miles South 12.7 mph - N/A   Clear
7:53 PM 60.1°F 55.0°F 83% 30.24 in 10.0 miles SSW 8.1 mph - N/A   Clear
8:53 PM 60.1°F 55.9°F 86% 30.21 in 10.0 miles South 9.2 mph - N/A   Mostly Cloudy
9:53 PM 59.0°F 55.9°F 90% 30.19 in 10.0 miles South 9.2 mph - N/A   Scattered Clouds
10:53 PM 59.0°F 55.9°F 90% 30.18 in 10.0 miles SW 5.8 mph - N/A   Clear
11:53 PM 60.1°F 57.0°F 90% 30.15 in 10.0 miles SSW 8.1 mph - N/A   Mostly Cloudy
Astronomy
Sunrise:06:42 AM (EST) Moon Rise:05:04 AM (EST)11/12
Sunset:04:44 PM (EST) Moon Set:03:47 PM (EST)11/12
Moon Phase
Nov. 12 Nov. 13 Nov. 20 Nov. 28 Dec. 06

Copyright © 2014 The Weather Underground, Inc.